Regional Weather Roundup
Issued by NWS Columbia, SC

Home | Current Version | Previous Version | Text Only | Print | Product List | Glossary On
Versions: 1 2 3 4 5 6 7 8 9 10 11 12 13 14 15 16 17 18 19 20 21 22 23 24 25 26 27 28 29 30 31 32 33 34 35 36 37 38 39 40 41 42 43 44 45 46 47 48 49 50
000
ASUS42 KCAE 011410
RWRCAE
REGIONAL WEATHER ROUNDUP
NATIONAL WEATHER SERVICE COLUMBIA SC
1000 AM EDT FRI AUG 01 2014

NOTE: "FAIR" INDICATES FEW OR NO CLOUDS BELOW 12,000 FEET WITH NO
SIGNIFICANT WEATHER AND/OR OBSTRUCTIONS TO VISIBILITY.

NOT ALL STATIONS ARE QUALITY CONTROLLED BY THE NATIONAL
WEATHER SERVICE. USE DATA WITH CAUTION...ESPECIALLY
DEWPOINT OBSERVATIONS.

SCZ001>056-GAZ040-063>065-077-011500-
...UPSTATE SOUTH CAROLINA...

CITY           SKY/WX    TMP DP  RH WIND       PRES   REMARKS
ANDERSON       LGT RAIN  67  64  90 NE7       30.10F
LIBERTY        PTSUNNY   67  32  27 NE5       30.11F
SPARTANBURG    CLOUDY    68  68 100 N8        30.11S
CLEMSON        CLOUDY    70  63  78 NE7       30.13S
GREENVILLE     CLOUDY    66  62  87 NE13      30.12S
GREENWOOD      CLOUDY    68  65  90 N8        30.10S
GREER          CLOUDY    67  63  87 N10       30.11R
ROCK HILL      LGT RAIN  68  67  96 VRB5      30.09F
CHESTER        LGT RAIN  70  70 100 N9        30.08F
LAURENS        LGT RAIN  68 N/A N/A N12G17    30.10F


...CENTRAL SOUTH CAROLINA...

CITY           SKY/WX    TMP DP  RH WIND       PRES   REMARKS
COLUMBIA APT   CLOUDY    72  66  81 NW6       30.06R
COLUMBIA OWENS CLOUDY    71  68  90 VRB7      30.07R
DARLINGTON     CLOUDY    77  72  83 E6        30.06R
FLORENCE       CLOUDY    79  72  79 E7        30.04R
MCENTIRE ANGB  CLOUDY    74  71  91 NW6       30.05S
ORANGEBURG     CLOUDY    76  71  85 NW6       30.05R
SUMTER SHAW    CLOUDY    76  75  96 NE2       30.03R FOG
NEWBERRY       CLOUDY    68  68 100 N10       30.10F
AIKEN          CLOUDY    72  72 100 N8        30.09F
BARNWELL       CLOUDY    73  72  94 N7        30.05S FOG
MANNING        PTSUNNY   81 N/A N/A CALM      30.03R
CAMDEN         RAIN      73  72  94 N6        30.06S
LANCASTER      RAIN      68  68 100 CALM      30.08F
WINNSBORO      PTSUNNY   66  66 100 N5        30.06F


...EASTERN AND COASTAL SOUTH CAROLINA...

CITY           SKY/WX    TMP DP  RH WIND       PRES   REMARKS
MYRTLE BEACH   PTSUNNY   77  73  88 S17       30.03F
N MYRTLE BCH   HVY RAIN  75  73  93 E7        30.05R VSB 1/4
CONWAY           N/A     79  79 100 SE3       30.04S
MARION         CLOUDY    77  73  88 NE6       30.05R
HARTSVILLE     CLOUDY    77  72  83 E6        30.05F
FLORENCE       CLOUDY    79  72  79 E7        30.04R
DARLINGTON     CLOUDY    77  72  83 E6        30.06R
CHARLESTON APT MOSUNNY   85  76  74 E6        30.02R
MOUNT PLEASANT FAIR      79  77  94 CALM      30.02S
WALTERBORO     MOSUNNY   81 N/A N/A CALM      30.03R
BEAUFORT       PTSUNNY   80  75  84 NE8       30.01R


...EASTERN GEORGIA...

CITY           SKY/WX    TMP DP  RH WIND       PRES   REMARKS
AUGUSTA BUSH F CLOUDY    73  67  81 N9        30.05S
AUGUSTA DANIEL CLOUDY    72  67  84 N8        30.07S
THOMSON        CLOUDY    71  71 100 N7        30.11F
WASHINGTON     CLOUDY    68 N/A N/A NE6       30.09S
CLAXTON        CLOUDY    77  77 100 CALM      30.02S FOG
SYLVANIA       CLOUDY    76  75  99 N6        30.04S FOG
STATESBORO     CLOUDY    76  76 100 NE5       30.03R
SAVANNAH       CLOUDY    77  74  90 N6        30.01  FOG


...SOUTHERN NORTH CAROLINA...

CITY           SKY/WX    TMP DP  RH WIND       PRES   REMARKS
CHARLOTTE      LGT RAIN  66  63  90 NE12      30.10R
MONROE         RAIN      68  66  93 NE13      30.08S FOG
WADESBORO      LGT RAIN  70  68  94 NW5       30.07S
ROCKINGHAM       N/A     75  70  83 E10G20    30.06S
RUTHERFORDTON  DRIZZLE   64  63  96 N8        30.15F
ASHEVILLE      CLOUDY    67  60  78 VRB5      30.18F

$$


USA.gov is the U.S. government's official web portal to all federal, state and local government web resources and services.